GW2092 Weather Reports


time (UTC)temp
F
wind
direction
speed
knots
gust
knots
rain 1hr
in
rain 24hr
in
rain mn
in
humidity
%
barometer
mb
20260506224549 61 353 1.7 7.0 0.00 0.00 0.00 48 1015.9
20260506223037 61 347 0.9 6.1 0.00 0.00 0.00 50 1015.8
20260506221545 61 31 1.7 6.1 0.00 0.00 0.00 51 1015.7
20260506220048 62 51 0.0 5.2 0.00 0.00 0.00 54 1015.9
20260506214550 61 358 0.9 7.0 0.00 0.00 0.00 52 1015.9
20260506213040 62 23 0.0 6.1 0.00 0.00 0.00 51 1015.9
20260506211539 62 69 0.9 7.0 0.00 0.00 0.00 52 1015.9
20260506210047 62 62 0.9 6.1 0.00 0.00 0.00 51 1016.2
20260506204549 62 350 0.9 7.0 0.00 0.00 0.00 50 1016.2
20260506203045 62 77 0.9 6.1 0.00 0.00 0.00 54 1016.6
20260506201545 62 13 0.9 7.0 0.00 0.00 0.00 55 1016.8
20260506200047 61 0 0.9 5.2 0.00 0.00 0.00 52 1017.0
20260506194542 60 0 0.0 5.2 0.00 0.00 0.00 54 1016.8
20260506193039 61 0 1.7 7.0 0.00 0.00 0.00 54 1017.0
20260506191538 61 38 0.0 7.0 0.00 0.00 0.00 54 1017.2
20260506190045 61 0 0.9 5.2 0.00 0.00 0.00 54 1017.4
20260506184542 60 8 0.9 7.0 0.00 0.00 0.00 55 1017.5
20260506183039 61 278 0.0 5.2 0.00 0.00 0.00 59 1017.7
20260506181539 59 63 0.0 5.2 0.00 0.00 0.00 59 1018.3
20260506180105 59 108 0.9 3.5 0.00 0.00 0.00 59 1018.6
20260506174543 59 0 0.9 5.2 0.00 0.00 0.00 62 1018.7
20260506173054 59 0 0.0 3.5 0.00 0.00 0.00 61 1018.6
20260506171545 59 37 0.9 5.2 0.00 0.00 0.00 58 1018.6
20260506170041 60 266 0.0 6.1 0.00 0.00 0.00 58 1018.4
20260506164544 60 61 0.0 5.2 0.00 0.00 0.00 60 1018.7
20260506163050 58 250 0.9 5.2 0.00 0.00 0.00 62 1018.2
20260506161553 56 309 2.6 8.7 0.00 0.00 0.00 64 1017.8
20260506160046 55 59 1.7 7.8 0.00 0.00 0.00 65 1017.2
20260506154542 54 63 1.7 5.2 0.00 0.01 0.00 66 1017.5
20260506153046 54 102 0.0 6.1 0.00 0.01 0.00 71 1017.7
20260506151547 53 0 2.6 7.8 0.00 0.01 0.00 67 1017.5
20260506150046 52 81 0.9 5.2 0.00 0.01 0.00 73 1017.4
20260506144600 51 0 0.9 5.2 0.00 0.01 0.00 74 1017.3
20260506143050 50 63 0.9 7.0 0.00 0.01 0.00 75 1017.4
20260506141545 49 56 0.0 6.1 0.00 0.01 0.00 78 1017.5
20260506140048 49 23 1.7 5.2 0.00 0.01 0.00 77 1017.7
20260506134545 48 51 0.9 6.1 0.00 0.01 0.00 80 1017.4
20260506133046 47 0 0.0 7.0 0.00 0.01 0.00 83 1017.6
20260506131544 46 39 0.9 5.2 0.00 0.01 0.00 85 1017.4
20260506130052 46 0 0.9 6.1 0.00 0.01 0.00 87 1017.2
20260506124550 46 0 0.9 6.1 0.00 0.03 0.00 87 1017.0
20260506123039 45 342 0.9 5.2 0.00 0.03 0.00 87 1017.0
20260506121548 45 15 0.9 9.6 0.00 0.03 0.00 87 1017.0
20260506120047 45 315 0.9 7.8 0.00 0.03 0.00 88 1017.2
20260506114539 45 27 0.9 6.1 0.00 0.03 0.00 88 1016.8
20260506113038 45 105 0.9 5.2 0.00 0.03 0.00 89 1016.7
20260506111547 45 336 1.7 5.2 0.00 0.03 0.00 88 1016.6
20260506110046 45 88 0.9 5.2 0.00 0.03 0.00 88 1016.2
20260506104537 45 0 0.0 5.2 0.00 0.05 0.00 88 1015.7
20260506103043 45 0 0.9 5.2 0.00 0.05 0.00 88 1015.7
20260506101541 45 0 0.9 5.2 0.00 0.05 0.00 88 1015.0
20260506100038 45 0 0.0 4.3 0.00 0.05 0.00 88 1014.6
20260506094558 45 338 0.0 4.3 0.00 0.09 0.00 87 1014.5
20260506093047 45 326 0.9 6.1 0.00 0.09 0.00 86 1014.5
20260506091545 45 0 0.9 3.5 0.00 0.09 0.00 85 1014.3
20260506090044 45 0 0.0 2.6 0.00 0.09 0.00 86 1013.6
20260506084540 45 90 0.0 1.7 0.00 0.32 0.00 86 1013.3
20260506083042 45 82 0.0 2.6 0.00 0.32 0.00 86 1013.8
20260506081544 45 0 0.0 3.5 0.00 0.32 0.00 85 1013.5
20260506073055 46 256 0.0 4.3 0.00 0.56 0.00 86 1012.8
20260506071541 46 0 0.9 5.2 0.00 0.56 0.00 86 1012.7
20260506061545 45 332 1.7 7.8 0.00 0.83 0.00 89 1012.9
20260506044551 46 0 0.9 5.2 0.00 0.86 0.86 89 1013.6
20260506043044 46 346 0.0 4.3 0.00 0.86 0.86 90 1013.0
20260506041550 46 0 1.7 5.2 0.00 0.86 0.86 90 1013.0
20260506040049 46 0 0.0 4.3 0.00 0.86 0.86 90 1012.6
20260506034552 46 0 0.0 3.5 0.00 0.86 0.86 90 1012.5
20260506033053 46 0 0.0 6.1 0.00 0.86 0.86 89 1012.4
20260506031544 46 59 1.7 6.1 0.00 0.86 0.86 90 1011.8
20260506030042 46 56 0.9 6.1 0.00 0.86 0.86 90 1011.6
20260506024603 46 70 0.9 6.1 0.00 0.86 0.86 90 1011.7
20260506023048 46 337 0.9 7.8 0.00 0.86 0.86 89 1011.4
20260506021546 46 44 0.0 6.1 0.00 0.86 0.86 89 1011.2
20260506020037 46 0 0.9 6.1 0.00 0.86 0.86 89 1010.9
20260506014544 46 99 0.9 5.2 0.00 0.86 0.86 90 1011.0
20260506013047 46 60 1.7 7.0 0.00 0.86 0.86 90 1010.8
20260506011604 46 354 1.7 6.1 0.00 0.86 0.86 90 1010.3
20260506010039 46 85 0.9 5.2 0.00 0.86 0.86 90 1010.6
20260506004546 46 65 1.7 6.1 0.00 0.86 0.86 90 1010.2
20260506003043 46 66 0.0 7.0 0.00 0.86 0.86 90 1010.3
20260506001544 46 0 1.7 6.1 0.00 0.86 0.86 89 1010.3
20260506000051 47 356 0.0 7.8 0.00 0.86 0.86 88 1010.2
20260505234540 47 1 1.7 6.1 0.00 0.86 0.86 88 1010.0
20260505233038 47 359 3.5 9.6 0.00 0.86 0.86 87 1009.6
20260505231541 47 58 0.9 7.8 0.00 0.86 0.86 87 1009.4
20260505230038 48 96 1.7 7.8 0.00 0.86 0.86 85 1009.5